Theta_e
328 333 334 337 336 336 334 333 347 349 349 346 343 340 339 347 349 350 348 348 349 347 340 338 332 330 327 323 322 321 318 319 318 316 312 323 327 314 313 320 321 325 328
328 331 331 333 333 331 331 333 337 347 348 346 343 342 346 345 346 345 340 339 335 332 330 328 324 322 323 320 319 314 312 315 316 312 310 308 312 311 312 312 314 315 315
327 327 330 330 330 330 328 331 330 329 347 347 347 346 344 339 334 332 331 330 329 329 328 325 322 320 319 317 316 312 312 312 313 314 309 303 302 305 308 311 310 310 311
328 326 327 326 329 328 331 329 329 332 343 346 346 344 340 332 330 329 329 328 329 326 326 324 323 319 317 316 316 314 312 313 310 311 314 310 309 302 301 305 307 309 309
324 323 325 327 329 331 329 328 330 340 345 344 347 343 337 331 329 327 324 324 324 325 324 321 320 319 318 316 315 311 311 312 309 309 309 306 305 306 301 302 305 306 306
321 323 325 325 326 329 328 328 330 329 335 345 340 338 331 327 323 322 322 320 319 320 322 323 319 318 318 315 316 313 311 310 307 310 308 306 304 302 302 301 301 302 304
320 321 323 326 325 324 326 331 334 332 337 340 336 334 331 327 323 321 321 319 317 317 317 318 317 317 316 317 316 313 310 310 310 309 308 306 304 305 303 300 302 301 302
320 321 323 326 330 328 331 332 329 335 340 337 332 331 329 325 324 323 320 318 317 317 318 319 318 317 317 316 313 311 310 310 308 306 305 305 304 303 302 301 299 299 301
317 321 325 329 330 336 338 332 328 331 334 332 330 329 327 324 323 321 321 320 319 320 318 317 315 315 314 313 311 308 307 306 305 303 302 302 303 303 303 302 301 298 298
318 322 320 328 335 339 339 339 335 330 329 329 328 327 325 324 322 321 319 317 316 315 314 313 312 311 309 307 304 303 303 301 301 302 301 302 302 303 303 303 302 301 301
318 320 319 329 336 338 334 332 330 327 326 326 325 324 322 321 319 318 316 314 313 312 312 311 309 307 305 303 302 302 302 300 299 300 302 302 302 302 302 306 306 303 302
313 315 322 329 332 330 329 328 326 325 325 325 323 321 319 317 315 313 312 311 309 309 308 307 306 306 304 301 301 300 300 299 298 299 299 300 304 304 304 304 302 303 302
316 316 323 329 326 325 324 324 324 323 323 321 319 317 315 314 311 310 309 308 307 304 304 304 304 304 302 300 299 299 299 297 297 298 298 299 304 302 302 301 300 300 299
316 321 324 321 321 322 323 322 321 322 320 319 317 314 311 310 308 306 305 304 304 303 303 303 304 302 300 299 298 298 296 296 296 297 298 302 303 302 302 301 298 297 297
314 314 314 316 318 320 321 321 320 320 319 316 313 308 306 304 303 303 303 303 303 303 303 303 302 300 299 299 296 295 294 294 294 296 298 303 304 304 304 301 299 299 298
312 313 314 315 315 316 318 318 317 314 310 307 303 303 302 303 302 302 301 300 299 299 299 299 300 299 301 299 299 297 293 293 293 293 297 298 302 302 304 304 304 301 297
309 310 310 310 309 309 307 305 304 304 303 302 302 302 302 301 300 299 298 296 295 295 296 296 297 297 295 297 297 299 293 292 292 293 293 294 298 301 299 299 300 300 301
300 301 301 301 302 302 302 303 302 301 301 300 301 301 300 298 297 296 294 294 293 293 293 294 295 299 299 296 296 296 292 291 292 292 292 292 295 298 296 296 297 297 297
297 297 299 298 298 298 299 300 300 300 301 299 299 299 299 296 295 293 293 292 292 293 297 298 298 294 295 294 294 293 291 291 289 291 292 293 295 295 294 295 295 296 296
298 298 297 297 297 298 299 298 298 299 298 298 298 298 297 295 294 292 292 292 295 297 296 293 295 297 290 293 292 291 289 287 288 288 290 294 294 293 293 293 294 293 293
299 300 298 296 296 297 297 296 296 296 298 297 296 294 292 292 292 291 291 290 288 288 288 288 289 290 291 289 291 291 287 287 287 287 289 291 293 292 291 293 294 293 294
296 297 296 295 296 296 295 293 293 295 295 294 293 292 289 291 291 289 288 287 286 286 286 285 286 288 289 292 291 290 290 290 285 286 288 290 291 291 291 293 293 292 294
294 293 291 291 292 293 293 291 292 293 292 289 288 288 289 289 289 288 287 286 285 284 284 284 284 285 287 287 290 289 289 289 288 288 290 291 291 292 293 293 293 293 293
292 291 290 288 288 290 290 290 290 291 289 287 287 287 288 287 288 288 288 285 285 285 285 286 283 285 287 287 287 287 289 291 288 289 287 290 292 292 292 292 293 293 293
292 291 289 288 288 290 290 291 292 292 289 288 288 289 289 289 289 291 288 288 288 289 287 287 286 285 286 287 289 288 288 289 290 290 288 288 289 288 289 290 291 291 291
291 289 288 288 288 290 290 291 292 290 288 289 290 288 289 288 288 286 286 291 290 290 290 290 288 288 289 289 289 289 289 289 289 288 286 286 287 287 288 288 288 289 290
Wind_Speed
5 17 14 7 8 9 6 20 19 10 8 4 4 3 4 4 6 7 7 7 6 6 6 7 7 6 7 5 5 3 4 5 6 3 4 3 4 6 11 5 5 9 9
6 6 18 13 9 9 3 3 14 4 6 5 3 2 4 5 7 6 6 7 8 7 8 7 6 6 6 6 6 6 3 3 5 2 2 5 6 7 7 5 8 7 7
13 9 13 14 11 12 8 6 15 16 14 10 7 6 6 5 5 5 5 4 8 7 9 8 7 6 5 4 4 4 6 4 3 6 3 4 3 8 3 3 8 7 6
11 7 6 7 9 10 12 6 7 4 20 9 9 14 6 5 3 3 4 4 6 8 9 8 7 6 4 6 4 4 3 3 3 3 3 2 4 2 7 3 3 5 6
13 11 9 10 10 6 11 3 7 4 20 8 10 10 8 6 5 5 8 4 4 6 7 7 6 6 4 4 5 5 5 2 1 0 2 1 2 3 3 7 9 4 4
10 12 10 4 4 7 9 6 4 10 5 9 6 14 16 11 9 7 4 4 3 4 6 6 5 6 4 3 3 3 2 1 2 1 2 1 1 3 2 6 10 10 5
14 16 15 13 11 13 10 2 7 16 16 7 7 12 14 14 11 9 7 7 3 2 5 5 4 3 3 3 2 2 3 2 2 3 3 2 2 2 2 3 8 7 5
17 18 19 17 17 15 14 17 23 17 20 10 11 11 9 7 7 5 6 5 4 4 3 4 5 5 4 4 4 3 3 4 4 6 4 3 3 3 1 2 4 8 6
19 19 17 13 13 19 18 19 16 18 13 15 10 9 6 8 7 8 7 5 6 4 5 6 6 6 6 6 6 4 5 5 4 5 5 3 3 3 3 2 1 2 8
13 13 8 11 13 11 10 10 11 15 15 14 11 10 11 10 10 11 10 7 5 6 7 7 7 7 6 6 6 5 6 5 4 3 5 4 3 4 4 3 3 1 3
16 12 8 6 9 10 14 12 11 16 14 12 12 12 11 11 11 10 8 7 7 7 8 6 6 6 6 6 7 6 5 5 5 5 4 6 5 4 4 4 4 5 6
7 7 7 9 9 14 14 15 14 14 14 14 13 11 12 12 12 10 9 8 7 7 7 6 6 5 6 6 7 5 4 5 6 6 6 6 5 5 5 4 6 4 6
13 7 9 9 15 14 15 14 15 14 15 14 14 12 10 11 10 9 8 8 7 7 6 4 5 4 6 5 5 4 4 5 5 6 6 6 4 5 4 3 5 5 5
11 11 14 14 16 14 15 14 14 14 15 14 13 11 10 10 9 9 8 8 6 6 5 6 4 5 4 5 4 4 5 6 6 6 6 6 3 5 4 5 4 5 5
19 17 14 14 13 16 13 15 14 13 13 13 13 11 11 10 10 9 7 7 7 6 6 5 4 4 4 3 2 4 5 6 6 6 7 7 9 11 9 5 5 5 7
18 18 17 15 16 14 13 12 10 10 12 15 14 12 11 11 9 8 8 8 7 6 6 6 6 6 2 1 5 6 4 6 6 6 6 6 9 9 12 11 11 11 9
16 16 15 13 12 12 12 14 14 13 14 13 13 11 11 11 10 7 7 7 6 6 7 6 5 3 1 2 7 9 4 5 6 6 6 7 8 9 7 11 16 15 14
13 13 11 13 14 12 13 14 13 14 14 11 11 10 10 9 8 8 7 6 4 3 1 3 4 3 2 7 10 10 5 6 6 6 7 6 8 7 11 12 12 12 10
11 9 11 15 15 15 13 14 14 13 15 11 10 9 10 8 6 7 5 2 2 3 3 3 5 6 6 12 15 9 5 5 6 7 7 7 8 10 15 12 12 13 12
9 12 14 14 17 13 14 16 13 14 13 10 10 9 8 7 7 5 5 3 3 5 6 6 7 12 7 12 12 12 5 7 7 7 7 11 9 16 15 10 11 12 15
11 12 14 15 13 13 13 14 13 13 9 8 9 8 7 7 6 6 6 6 6 6 7 7 6 7 6 6 14 16 6 6 7 6 7 7 13 18 17 14 8 11 15
13 15 15 13 11 12 13 12 12 8 7 9 8 8 6 6 6 7 6 6 6 6 6 7 6 5 8 12 14 18 15 14 5 7 7 8 18 19 17 11 14 16 15
12 12 14 14 11 11 11 11 5 8 9 8 6 6 6 6 5 6 5 5 6 5 4 5 5 6 6 5 16 19 20 16 8 5 10 18 16 15 9 12 16 14 8
12 12 14 12 11 10 10 8 9 7 8 6 6 5 6 6 6 4 4 4 4 4 4 5 5 5 6 7 9 9 9 13 6 7 7 10 11 10 10 10 9 8 8
12 12 13 11 11 10 10 8 7 7 6 6 5 5 4 5 5 6 4 4 4 4 3 3 5 5 6 7 12 13 9 8 7 6 4 7 8 8 8 8 10 10 9
13 13 13 12 10 10 9 7 5 5 5 5 4 4 4 4 4 4 4 10 8 8 8 6 5 5 7 12 13 15 15 15 16 6 7 7 8 9 9 10 11 10 13
Wind_Direction
350 127 130 160 288 37 72 17 285 173 170 150 105 122 147 114 82 92 107 97 92 88 90 91 83 71 74 66 41 14 27 12 350 3 306 310 320 40 351 356 348 3 353
154 138 148 167 175 120 138 54 309 246 149 121 120 145 117 88 114 101 78 105 102 100 95 99 89 84 84 60 48 41 15 4 15 357 333 346 335 360 315 337 9 3 345
156 165 175 172 166 147 143 134 330 349 284 171 126 73 92 101 88 88 113 91 100 99 102 95 90 81 92 83 68 50 49 12 348 37 99 354 326 323 333 353 3 349 350
153 188 190 195 188 192 149 153 152 346 281 148 125 141 163 156 95 133 101 83 93 103 97 97 96 97 100 78 68 53 55 70 13 323 39 171 210 325 325 321 314 356 352
172 171 194 198 221 183 186 144 156 110 205 255 167 146 141 151 135 100 101 124 109 99 98 95 108 104 91 87 76 49 41 41 291 321 302 302 278 240 235 304 325 328 326
169 168 182 130 178 169 157 152 130 82 284 232 177 157 147 142 118 120 149 144 111 92 96 101 90 82 89 85 74 62 23 2 353 301 331 255 292 288 284 299 320 323 342
184 172 165 174 157 169 182 150 113 159 244 269 162 140 149 138 141 147 164 125 99 98 106 96 100 82 60 60 60 19 351 6 329 328 311 313 267 248 258 278 323 322 315
195 180 174 195 171 182 177 186 136 162 188 182 161 143 145 139 121 162 132 107 122 98 91 88 74 63 48 43 33 40 13 357 357 349 359 314 317 322 303 289 338 327 322
195 177 185 192 175 178 193 177 172 166 147 134 128 102 106 112 133 113 100 104 91 108 86 75 61 34 34 45 41 28 16 21 8 16 6 314 300 338 338 323 340 315 329
178 180 169 185 190 162 170 140 120 114 123 116 119 122 116 111 104 100 96 94 89 77 72 60 53 45 42 40 41 35 29 36 359 343 343 344 306 323 319 324 325 274 313
196 189 185 181 183 132 124 124 115 109 96 105 103 104 109 103 94 91 90 79 70 59 56 56 57 45 35 38 54 55 34 13 334 342 347 326 323 316 327 351 333 324 332
194 153 144 115 118 111 117 118 120 112 109 107 109 104 100 95 90 91 84 77 73 59 63 50 43 35 69 56 60 39 10 355 339 332 337 324 329 7 348 338 319 335 331
171 111 103 110 114 119 120 118 117 113 110 107 101 97 92 90 88 87 81 70 75 69 53 51 41 61 77 66 53 45 5 347 332 318 318 313 352 348 324 323 329 334 325
85 86 95 107 113 116 113 108 109 112 112 107 103 100 94 88 81 74 70 69 64 56 40 34 39 106 97 65 34 19 1 340 326 310 316 311 324 317 318 321 318 296 298
84 87 87 98 105 112 118 113 117 123 122 115 105 104 99 89 85 81 72 64 47 36 37 50 35 53 69 53 23 22 348 318 329 328 327 322 330 353 331 321 302 298 304
90 92 95 98 92 97 110 107 105 94 96 97 98 91 82 85 80 75 75 68 56 39 34 19 18 29 48 61 38 21 339 332 339 339 326 333 326 340 339 328 324 306 309
91 96 91 89 87 92 99 95 91 85 77 77 82 89 89 85 80 76 64 55 42 36 31 16 9 344 195 55 31 4 342 349 344 352 349 340 337 338 353 327 315 310 304
61 74 80 78 76 76 79 87 83 95 88 76 78 73 86 86 85 73 62 46 33 31 4 337 329 356 45 30 17 0 349 356 355 348 332 321 319 351 350 334 325 318 313
83 68 79 75 68 62 66 73 68 74 79 76 73 79 86 81 77 71 59 41 35 1 347 351 6 14 57 40 28 9 354 351 334 329 320 323 322 346 351 339 326 320 318
91 90 80 77 70 63 66 68 63 66 70 70 71 70 72 68 57 47 34 13 11 22 13 9 38 63 70 43 32 18 348 339 335 324 317 321 326 342 339 334 324 320 325
93 84 76 79 80 73 67 68 70 67 71 73 65 57 44 54 41 39 37 48 44 38 32 30 10 30 42 13 15 6 357 340 330 320 320 318 328 330 325 326 309 319 310
93 87 88 80 76 78 81 70 66 67 70 73 66 65 52 56 63 78 52 47 52 47 31 20 8 356 2 359 354 345 336 328 311 308 308 309 320 318 313 320 313 307 312
97 94 92 84 71 73 77 81 78 75 64 64 58 60 51 46 52 72 63 48 49 51 32 31 8 357 344 339 346 345 335 329 319 294 310 315 313 308 320 322 316 322 326
107 100 93 89 85 77 77 69 58 67 68 67 59 49 48 36 36 56 72 66 52 49 36 25 10 348 353 355 354 346 337 344 339 331 314 315 321 329 322 333 331 334 328
108 104 101 96 86 82 78 74 67 69 69 65 51 43 35 36 44 54 45 71 62 70 55 16 7 359 357 347 341 351 350 347 342 331 346 354 350 343 344 341 344 336 331
113 102 99 99 99 95 88 86 77 69 81 77 59 52 48 49 52 51 26 35 95 65 41 6 14 348 345 348 344 349 348 359 355 10 3 351 348 345 345 343 336 331 332